PAA564 KLAS-KSFO

Flight info

Callsign PAA564
Flight time N/A
Altitude 32000
Route LAS BTY BIH MOD MOD9
Aircraft B722/M-SDIWY/C

Departure

Time 2026-04-30 21:57
Airport Harry Reid International Airport (KLAS)

Arrival

Time N/A
Airport San Francisco International Airport (KSFO)
Time Latitude Longitude Altitude Speed Heading
2026-04-30 21:15 36.08523 -115.15349 2117 ft 0 kts 334°
2026-04-30 21:18 36.08523 -115.15348 2117 ft 0 kts 334°
2026-04-30 21:46 36.08508 -115.15338 2119 ft 4 kts 329°
2026-04-30 21:46 36.08486 -115.15319 2117 ft 4 kts 317°
2026-04-30 21:47 36.08468 -115.15294 2120 ft 4 kts 306°
2026-04-30 21:47 36.08453 -115.15266 2119 ft 4 kts 302°
2026-04-30 21:47 36.08448 -115.15256 2119 ft 0 kts 305°
2026-04-30 21:51 36.08452 -115.15268 2118 ft 3 kts 274°
2026-04-30 21:51 36.08434 -115.15309 2117 ft 8 kts 236°
2026-04-30 21:52 36.08397 -115.15389 2119 ft 12 kts 244°
2026-04-30 21:52 36.08362 -115.15482 2122 ft 12 kts 245°
2026-04-30 21:52 36.08326 -115.15561 2127 ft 10 kts 215°
2026-04-30 21:52 36.08249 -115.15548 2127 ft 14 kts 154°
2026-04-30 21:53 36.08157 -115.15495 2129 ft 15 kts 155°
2026-04-30 21:53 36.08059 -115.15438 2129 ft 17 kts 155°
2026-04-30 21:53 36.07948 -115.15375 2130 ft 18 kts 155°
2026-04-30 21:53 36.07840 -115.15334 2132 ft 15 kts 201°
2026-04-30 21:54 36.07804 -115.15452 2132 ft 17 kts 268°
2026-04-30 21:54 36.07804 -115.15619 2128 ft 22 kts 270°
2026-04-30 21:54 36.07803 -115.15811 2127 ft 21 kts 269°
2026-04-30 21:54 36.07803 -115.16002 2124 ft 24 kts 270°
2026-04-30 21:55 36.07786 -115.16115 2122 ft 11 kts 217°
2026-04-30 21:55 36.07708 -115.16128 2124 ft 11 kts 180°
2026-04-30 21:55 36.07645 -115.16101 2127 ft 10 kts 113°
2026-04-30 21:55 36.07639 -115.16060 2127 ft 0 kts 90°
2026-04-30 21:56 36.07639 -115.16011 2128 ft 22 kts 90°
2026-04-30 21:56 36.07640 -115.15537 2128 ft 87 kts 90°
2026-04-30 21:56 36.07643 -115.14539 2126 ft 143 kts 90°
2026-04-30 21:56 36.07656 -115.13183 2391 ft 166 kts 89°
2026-04-30 21:57 36.07682 -115.11770 3150 ft 161 kts 86°
2026-04-30 21:57 36.07731 -115.10361 3712 ft 170 kts 82°
2026-04-30 21:57 36.07710 -115.08861 4249 ft 179 kts 91°
2026-04-30 21:57 36.07601 -115.07253 4687 ft 198 kts 90°
2026-04-30 21:58 36.07501 -115.05466 5091 ft 221 kts 89°
2026-04-30 21:58 36.07384 -115.03471 5489 ft 234 kts 91°
2026-04-30 21:58 36.07274 -115.01345 5868 ft 265 kts 89°
2026-04-30 21:58 36.07180 -114.98988 6268 ft 278 kts 88°
2026-04-30 21:59 36.07068 -114.96577 6593 ft 281 kts 89°
2026-04-30 21:59 36.06921 -114.94189 7088 ft 281 kts 93°
2026-04-30 21:59 36.06241 -114.91909 7593 ft 293 kts 123°
2026-04-30 22:00 36.02584 -114.90023 8639 ft 306 kts 189°
2026-04-30 22:00 35.98730 -114.92103 9790 ft 305 kts 212°
2026-04-30 22:00 35.96892 -114.93433 10320 ft 307 kts 214°
2026-04-30 22:01 35.95393 -114.95213 10790 ft 304 kts 242°
2026-04-30 22:01 35.94589 -114.97651 11331 ft 315 kts 257°
2026-04-30 22:01 35.94076 -115.00354 11941 ft 331 kts 261°
2026-04-30 22:01 35.93595 -115.03216 12527 ft 349 kts 262°
2026-04-30 22:02 35.93089 -115.06202 13112 ft 359 kts 261°
2026-04-30 22:02 35.92572 -115.09222 13690 ft 361 kts 261°
2026-04-30 22:02 35.92060 -115.12270 14198 ft 365 kts 261°
2026-04-30 22:02 35.91719 -115.14305 14531 ft 366 kts 262°
2026-04-30 22:03 35.91022 -115.18436 15199 ft 370 kts 261°
2026-04-30 22:03 35.90674 -115.20502 15541 ft 372 kts 262°
2026-04-30 22:03 35.90152 -115.23638 16053 ft 376 kts 261°
2026-04-30 22:03 35.89453 -115.27848 16760 ft 380 kts 261°
2026-04-30 22:04 35.88917 -115.31053 17297 ft 383 kts 260°
2026-04-30 22:04 35.88558 -115.33229 17658 ft 386 kts 261°
2026-04-30 22:04 35.87485 -115.39795 18694 ft 394 kts 261°
2026-04-30 22:05 35.86944 -115.43086 18934 ft 400 kts 261°
2026-04-30 22:05 35.86397 -115.46441 18936 ft 398 kts 262°
2026-04-30 22:05 35.85849 -115.49783 18934 ft 397 kts 261°
2026-04-30 22:05 35.85299 -115.53127 18925 ft 397 kts 261°
2026-04-30 22:06 35.84752 -115.56451 19118 ft 395 kts 261°
2026-04-30 22:06 35.83651 -115.63156 19836 ft 401 kts 261°
2026-04-30 22:06 35.83094 -115.66528 20178 ft 402 kts 261°
2026-04-30 22:07 35.82531 -115.69908 20539 ft 405 kts 262°
2026-04-30 22:07 35.81962 -115.73319 20911 ft 407 kts 261°
2026-04-30 22:07 35.81393 -115.76701 21265 ft 409 kts 261°
2026-04-30 22:07 35.80805 -115.80193 21654 ft 412 kts 261°
2026-04-30 22:08 35.80335 -115.83626 22022 ft 411 kts 270°
2026-04-30 22:08 35.80718 -115.87063 22396 ft 405 kts 292°
2026-04-30 22:08 35.81986 -115.90146 22801 ft 403 kts 304°
2026-04-30 22:08 35.83614 -115.92954 23213 ft 404 kts 310°
2026-04-30 22:09 35.85387 -115.95661 23596 ft 406 kts 311°
2026-04-30 22:09 35.87167 -115.98363 23938 ft 407 kts 311°
2026-04-30 22:09 35.88961 -116.01088 24281 ft 409 kts 311°
2026-04-30 22:09 35.90758 -116.03816 24609 ft 410 kts 310°
2026-04-30 22:10 35.92563 -116.06554 24955 ft 412 kts 311°
2026-04-30 22:10 35.94382 -116.09279 25324 ft 412 kts 311°
2026-04-30 22:10 35.96386 -116.11805 25677 ft 412 kts 320°
2026-04-30 22:10 35.98621 -116.14039 26029 ft 414 kts 323°
2026-04-30 22:11 36.03397 -116.18076 26773 ft 417 kts 328°
2026-04-30 22:11 36.05904 -116.19929 27157 ft 419 kts 329°
2026-04-30 22:11 36.08437 -116.21737 27535 ft 421 kts 330°
2026-04-30 22:12 36.10973 -116.23542 27922 ft 423 kts 330°
2026-04-30 22:12 36.13523 -116.25377 28336 ft 425 kts 329°
2026-04-30 22:12 36.16077 -116.27238 28709 ft 426 kts 329°
2026-04-30 22:12 36.18631 -116.29118 29110 ft 428 kts 328°
2026-04-30 22:13 36.21195 -116.31014 29523 ft 430 kts 328°
2026-04-30 22:13 36.23764 -116.32916 29939 ft 431 kts 328°
2026-04-30 22:13 36.26346 -116.34827 30291 ft 433 kts 328°
2026-04-30 22:13 36.28929 -116.36737 30650 ft 434 kts 328°
2026-04-30 22:14 36.31526 -116.38657 31024 ft 434 kts 328°
2026-04-30 22:14 36.34123 -116.40577 31386 ft 435 kts 328°
2026-04-30 22:14 36.36698 -116.42482 31749 ft 435 kts 328°
2026-04-30 22:15 36.41982 -116.46398 31847 ft 451 kts 328°
2026-04-30 22:15 36.47432 -116.50442 31862 ft 454 kts 328°
2026-04-30 22:16 36.52811 -116.54435 31858 ft 452 kts 328°
2026-04-30 22:17 36.63609 -116.62472 31848 ft 451 kts 328°
2026-04-30 22:17 36.71700 -116.68507 31880 ft 451 kts 327°
2026-04-30 22:18 36.79740 -116.74526 31889 ft 451 kts 327°
2026-04-30 22:19 36.87349 -116.81314 31908 ft 448 kts 308°
2026-04-30 22:20 36.92132 -116.91340 31904 ft 447 kts 298°
2026-04-30 22:20 36.96393 -117.01680 31909 ft 448 kts 298°
2026-04-30 22:21 36.99224 -117.08619 31925 ft 448 kts 297°
2026-04-30 22:21 37.02057 -117.15566 31914 ft 446 kts 297°
2026-04-30 22:22 37.04687 -117.22586 31919 ft 448 kts 289°
2026-04-30 22:22 37.06022 -117.30231 31931 ft 449 kts 282°
2026-04-30 22:23 37.07071 -117.37947 31937 ft 450 kts 282°
2026-04-30 22:23 37.08317 -117.45620 31937 ft 448 kts 287°
2026-04-30 22:24 37.10397 -117.52912 31924 ft 446 kts 294°
2026-04-30 22:24 37.12889 -117.60014 31931 ft 445 kts 295°
2026-04-30 22:25 37.15329 -117.67147 31927 ft 445 kts 293°
2026-04-30 22:25 37.17642 -117.74346 31932 ft 446 kts 292°
2026-04-30 22:26 37.21080 -117.85142 31940 ft 445 kts 293°
2026-04-30 22:27 37.23410 -117.92344 31925 ft 443 kts 293°
2026-04-30 22:27 37.26911 -118.03133 31944 ft 446 kts 293°
2026-04-30 22:28 37.30407 -118.14020 31979 ft 449 kts 293°
2026-04-30 22:29 37.35077 -118.28521 32030 ft 447 kts 293°
2026-04-30 22:30 37.39062 -118.43243 32015 ft 449 kts 279°
2026-04-30 22:31 37.39651 -118.54979 32009 ft 451 kts 275°
2026-04-30 22:32 37.41062 -118.74533 32074 ft 450 kts 279°
2026-04-30 22:33 37.43030 -118.93942 32091 ft 448 kts 279°
2026-04-30 22:35 37.44924 -119.13412 31990 ft 448 kts 279°
2026-04-30 22:36 37.46828 -119.32824 31991 ft 448 kts 279°
2026-04-30 22:37 37.48349 -119.48385 32002 ft 447 kts 279°
2026-04-30 22:38 37.49872 -119.63956 31998 ft 448 kts 279°
2026-04-30 22:39 37.51008 -119.75595 31979 ft 448 kts 279°
2026-04-30 22:40 37.52850 -119.94445 31965 ft 448 kts 279°
2026-04-30 22:43 37.53092 -119.96924 31979 ft 445 kts 279°
2026-04-30 22:44 37.54611 -120.12466 31959 ft 446 kts 279°
2026-04-30 22:45 37.56121 -120.27934 31204 ft 443 kts 279°
2026-04-30 22:45 37.56872 -120.35643 30609 ft 441 kts 279°
2026-04-30 22:46 37.57617 -120.43284 30026 ft 437 kts 279°
2026-04-30 22:47 37.59087 -120.58350 28720 ft 430 kts 279°
2026-04-30 22:47 37.59814 -120.65811 28075 ft 427 kts 279°
2026-04-30 22:48 37.60414 -120.71958 27558 ft 416 kts 279°
2026-04-30 22:49 37.61390 -120.82084 26582 ft 363 kts 279°
2026-04-30 22:49 37.62295 -120.91332 25077 ft 348 kts 280°
2026-04-30 22:50 37.62300 -121.03340 23195 ft 346 kts 260°
2026-04-30 22:51 37.61095 -121.09192 22139 ft 343 kts 259°
2026-04-30 22:51 37.59898 -121.14989 21123 ft 340 kts 259°
2026-04-30 22:52 37.59302 -121.17875 20623 ft 339 kts 259°
2026-04-30 22:52 37.58119 -121.23592 19665 ft 336 kts 259°
2026-04-30 22:53 37.56962 -121.29237 18720 ft 334 kts 259°
2026-04-30 22:53 37.55830 -121.34883 17741 ft 331 kts 259°
2026-04-30 22:53 37.55276 -121.37701 17223 ft 329 kts 259°
2026-04-30 22:54 37.54178 -121.43291 16215 ft 326 kts 259°
2026-04-30 22:55 37.52567 -121.51556 14767 ft 321 kts 259°
2026-04-30 22:55 37.51532 -121.56963 13835 ft 318 kts 259°
2026-04-30 22:56 37.50524 -121.62354 12806 ft 314 kts 259°
2026-04-30 22:56 37.49094 -121.70353 11336 ft 308 kts 259°
2026-04-30 22:57 37.48247 -121.75603 10384 ft 303 kts 259°
2026-04-30 22:57 37.47466 -121.80803 9398 ft 300 kts 259°
2026-04-30 22:58 37.46713 -121.85914 8398 ft 297 kts 260°
2026-04-30 22:59 37.45737 -121.93546 6944 ft 291 kts 269°
2026-04-30 22:59 37.46095 -122.00877 5443 ft 271 kts 298°